Location: ???????????
(55.5758°N, 38.4970°E)
Time: 18:06:38
(UTC+00:00)

NOSS 3-1 (A) - Pass Details

Date: 15 November 2025
Orbit: 621 x 1586 km, 63.4° (Epoch: 02 December)

Event Time Altitude Azimuth Distance (km) Brightness Sun altitude
Exits shadow 03:37:47 14° 269° (W) 2,064 4.6 -11.5°
Maximum altitude 03:42:13 49° 342° (NNW) 1,135 3.7 -10.9°
Drops below altitude 10° 03:48:43 10° 57° (ENE) 2,905 6.6 -10.0°
Sets 03:51:50 0° 63° (ENE) 4,028 7.4 -9.6°
